ALGONAWA Weather Reports


Display with metric or nautical units.
time (UTC)temp
F
wind
direction
speed
MPH
gust
MPH
rain 1hr
in
rain 24hr
in
rain mn
in
humidity
%
barometer
mb
20260505124607 56 224 1.0 2.0 0.00 0.00 0.00 85 1016.3
20260505124046 56 238 1.0 2.0 0.00 0.00 0.00 85 1016.3
20260505123546 56 217 0.0 2.0 0.00 0.00 0.00 86 1016.2
20260505123059 56 219 1.0 3.0 0.00 0.00 0.00 86 1016.2
20260505122547 56 193 1.0 3.0 0.00 0.00 0.00 86 1016.2
20260505122047 56 198 1.0 3.0 0.00 0.00 0.00 86 1016.2
20260505121559 56 186 1.0 3.0 0.00 0.00 0.00 86 1016.2
20260505121047 56 210 0.0 3.0 0.00 0.00 0.00 86 1016.0
20260505120547 56 178 1.0 2.0 0.00 0.00 0.00 86 1016.1
20260505120057 56 175 1.0 3.0 0.00 0.00 0.00 86 1016.1
20260505115545 56 221 1.0 3.0 0.00 0.00 0.00 86 1016.1
20260505115048 55 165 2.0 3.0 0.00 0.00 0.00 86 1016.1
20260505114600 55 186 1.0 3.0 0.00 0.00 0.00 86 1016.0
20260505114045 55 180 1.0 3.0 0.00 0.00 0.00 86 1016.0
20260505113547 55 186 0.0 3.0 0.00 0.00 0.00 86 1016.1
20260505113120 55 216 2.0 3.0 0.00 0.00 0.00 86 1015.9
20260505112545 55 185 1.0 3.0 0.00 0.00 0.00 86 1016.0
20260505112045 55 0 1.0 2.0 0.00 0.00 0.00 86 1016.0
20260505111557 55 178 0.0 1.0 0.00 0.00 0.00 86 1016.0
20260505111045 55 176 0.0 3.0 0.00 0.00 0.00 86 1016.0
20260505110546 55 201 1.0 4.0 0.00 0.00 0.00 87 1015.9
20260505102045 55 191 1.0 4.0 0.00 0.00 0.00 87 1015.6
20260505101554 55 0 1.0 5.0 0.00 0.00 0.00 87 1015.8
20260505101045 55 207 3.0 5.0 0.00 0.00 0.00 87 1015.6
20260505100546 55 176 1.0 6.0 0.00 0.00 0.00 87 1015.6
20260505100051 55 174 4.0 6.0 0.00 0.00 0.00 87 1015.6
20260505095547 55 231 1.0 3.0 0.00 0.00 0.00 87 1015.6
20260505095047 55 174 1.0 4.0 0.00 0.00 0.00 88 1015.5
20260505094557 55 231 1.0 4.0 0.00 0.00 0.00 88 1015.5
20260505094047 55 195 1.0 4.0 0.00 0.00 0.00 88 1015.5
20260505093547 55 0 1.0 3.0 0.00 0.00 0.00 88 1015.4
20260505093102 55 169 0.0 2.0 0.00 0.00 0.00 88 1015.4
20260505092547 54 218 1.0 5.0 0.00 0.00 0.00 88 1015.4
20260505092047 54 219 2.0 5.0 0.00 0.00 0.00 89 1015.4
20260505091603 54 243 1.0 2.0 0.00 0.00 0.00 90 1015.4
20260505091050 54 0 0.0 1.0 0.00 0.00 0.00 90 1015.4
20260505090546 53 213 0.0 2.0 0.00 0.00 0.00 90 1015.4
20260505090101 53 245 1.0 2.0 0.00 0.00 0.00 91 1015.3
20260505085546 53 188 0.0 1.0 0.00 0.00 0.00 91 1015.2
20260505085047 53 0 0.0 1.0 0.00 0.00 0.00 90 1015.2
20260505084556 53 166 0.0 1.0 0.00 0.00 0.00 90 1015.2
20260505084046 53 0 0.0 2.0 0.00 0.00 0.00 90 1015.2
20260505083546 53 189 0.0 2.0 0.00 0.00 0.00 90 1015.2
20260505083058 53 189 1.0 2.0 0.00 0.00 0.00 90 1015.3
20260505082545 53 0 0.0 0.0 0.00 0.00 0.00 90 1015.2
20260505082045 53 0 0.0 0.0 0.00 0.00 0.00 89 1015.2
20260505081604 53 0 0.0 0.0 0.00 0.00 0.00 89 1015.2
20260505081050 54 0 0.0 0.0 0.00 0.00 0.00 89 1015.3
20260505080547 54 0 0.0 1.0 0.00 0.00 0.00 88 1015.2
20260505080053 54 0 0.0 1.0 0.00 0.00 0.00 88 1015.1
20260505075548 54 159 0.0 1.0 0.00 0.00 0.00 88 1015.0
20260505075049 54 169 0.0 1.0 0.00 0.00 0.00 88 1015.0
20260505074553 54 0 0.0 1.0 0.00 0.00 0.00 87 1015.1
20260505074047 55 0 0.0 3.0 0.00 0.00 0.00 87 1014.9
20260505073547 55 139 1.0 3.0 0.00 0.00 0.00 87 1014.8
20260505073106 55 0 0.0 0.0 0.00 0.00 0.00 87 1014.7
20260505072548 55 0 0.0 3.0 0.00 0.00 0.00 87 1014.7
20260505072046 55 0 1.0 3.0 0.00 0.00 0.00 87 1014.6
20260505071559 55 182 1.0 3.0 0.00 0.00 0.00 86 1014.6
20260505071045 55 178 1.0 3.0 0.00 0.00 0.00 86 1014.5
20260505070550 55 154 2.0 3.0 0.00 0.00 0.00 86 1014.5
20260505070059 55 174 0.0 1.0 0.00 0.00 0.00 86 1014.4
20260505065549 55 179 0.0 1.0 0.00 0.00 0.00 86 1014.4
20260505065046 55 153 1.0 1.0 0.00 0.00 0.00 86 1014.3
20260505064552 55 150 0.0 1.0 0.00 0.00 0.00 85 1014.3
20260505064047 56 0 0.0 1.0 0.00 0.00 0.00 85 1014.3
20260505063548 56 169 0.0 1.0 0.00 0.00 0.00 85 1014.3
20260505063051 56 172 0.0 2.0 0.00 0.00 0.00 85 1014.2
20260505062549 56 181 0.0 2.0 0.00 0.00 0.00 84 1014.2
20260505062052 56 146 0.0 3.0 0.00 0.00 0.00 84 1014.2
20260505061552 56 0 0.0 3.0 0.00 0.00 0.00 84 1014.2
20260505061046 56 205 2.0 3.0 0.00 0.00 0.00 84 1014.0
20260505060547 57 173 1.0 2.0 0.00 0.00 0.00 83 1013.9
20260505060058 57 189 1.0 2.0 0.00 0.00 0.00 83 1013.8
20260505055551 57 179 1.0 2.0 0.00 0.00 0.00 83 1013.8
20260505055046 57 150 0.0 2.0 0.00 0.00 0.00 82 1013.7
20260505054558 57 181 1.0 2.0 0.00 0.00 0.00 82 1013.7
20260505054046 57 176 1.0 2.0 0.00 0.00 0.00 82 1013.7
20260505053547 58 176 0.0 2.0 0.00 0.00 0.00 81 1013.6
20260505053056 58 0 1.0 2.0 0.00 0.00 0.00 81 1013.5
20260505052545 58 191 0.0 5.0 0.00 0.00 0.00 80 1013.7
20260505052046 58 228 2.0 5.0 0.00 0.00 0.00 80 1013.6
20260505051605 59 169 1.0 4.0 0.00 0.00 0.00 79 1013.6
20260505051046 59 215 1.0 4.0 0.00 0.00 0.00 79 1013.4
20260505050548 59 172 2.0 4.0 0.00 0.00 0.00 79 1013.5
20260505050103 60 195 2.0 4.0 0.00 0.00 0.00 78 1013.5
20260505041557 62 210 1.0 2.0 0.00 0.00 0.00 73 1012.9
20260505041046 62 156 0.0 4.0 0.00 0.00 0.00 73 1012.7
20260505040546 63 0 0.0 4.0 0.00 0.00 0.00 72 1012.7
20260505040051 63 182 0.0 4.0 0.00 0.00 0.00 72 1012.7
20260505035547 63 181 2.0 4.0 0.00 0.00 0.00 71 1012.6
20260505035050 64 153 1.0 4.0 0.00 0.00 0.00 70 1012.5
20260505034556 64 257 1.0 4.0 0.00 0.00 0.00 70 1012.4
20260505034047 65 269 0.0 5.0 0.00 0.00 0.00 69 1012.3
20260505033547 65 175 1.0 5.0 0.00 0.00 0.00 68 1012.2
20260505033053 65 0 0.0 3.0 0.00 0.00 0.00 68 1012.1
20260505032547 66 221 0.0 5.0 0.00 0.00 0.00 67 1012.1
20260505032050 66 225 0.0 5.0 0.00 0.00 0.00 67 1012.0
20260505031557 67 226 2.0 5.0 0.00 0.00 0.00 66 1012.0
20260505031045 67 219 1.0 5.0 0.00 0.00 0.00 65 1011.9
20260505030549 68 0 2.0 6.0 0.00 0.00 0.00 65 1011.9
20260505030104 68 220 2.0 6.0 0.00 0.00 0.00 64 1011.8
20260505025547 69 222 2.0 6.0 0.00 0.00 0.00 63 1011.6
20260505025048 69 215 1.0 4.0 0.00 0.00 0.00 62 1011.6
20260505024603 70 216 0.0 4.0 0.00 0.00 0.00 62 1011.5
20260505024046 70 48 1.0 4.0 0.00 0.00 0.00 61 1011.5
20260505023546 70 60 1.0 4.0 0.00 0.00 0.00 60 1011.2
20260505023055 71 63 1.0 6.0 0.00 0.00 0.00 61 1011.2
20260505022547 71 328 1.0 6.0 0.00 0.00 0.00 59 1011.1
20260505022048 72 231 1.0 3.0 0.00 0.00 0.00 59 1011.0
20260505021551 73 328 1.0 7.0 0.00 0.00 0.00 57 1011.0
20260505021046 73 0 2.0 7.0 0.00 0.00 0.00 57 1011.0
20260505020548 74 243 3.0 7.0 0.00 0.00 0.00 54 1010.9
20260505020054 75 231 2.0 3.0 0.00 0.00 0.00 54 1010.9
20260505015548 76 44 0.0 4.0 0.00 0.00 0.00 54 1010.8
20260505015048 77 234 2.0 4.0 0.00 0.00 0.00 53 1010.7
20260505014554 77 259 2.0 3.0 0.00 0.00 0.00 53 1010.7
20260505014051 78 225 1.0 4.0 0.00 0.00 0.00 52 1010.7
20260505013547 78 243 2.0 4.0 0.00 0.00 0.00 52 1010.8
20260505013116 79 228 2.0 4.0 0.00 0.00 0.00 51 1010.8
20260505012549 79 0 0.0 3.0 0.00 0.00 0.00 51 1010.7
20260505012047 78 68 0.0 4.0 0.00 0.00 0.00 51 1010.8
20260505011613 79 253 1.0 4.0 0.00 0.00 0.00 51 1010.7
20260505011047 79 253 0.0 5.0 0.00 0.00 0.00 50 1010.8
20260505010548 79 8 2.0 5.0 0.00 0.00 0.00 51 1010.9
20260505005547 79 219 3.0 7.0 0.00 0.00 0.00 49 1011.0
20260505005048 79 224 3.0 5.0 0.00 0.00 0.00 48 1011.0
20260505004552 80 219 2.0 5.0 0.00 0.00 0.00 49 1011.0
20260505004046 80 231 1.0 4.0 0.00 0.00 0.00 49 1011.0
20260505003551 80 243 2.0 4.0 0.00 0.00 0.00 49 1011.0
20260505003057 80 211 0.0 6.0 0.00 0.00 0.00 52 1011.1
20260505002547 80 263 1.0 6.0 0.00 0.00 0.00 48 1011.1
20260505002048 80 236 3.0 6.0 0.00 0.00 0.00 48 1011.0
20260505001552 81 3 1.0 3.0 0.00 0.00 0.00 47 1011.1
20260505001046 81 233 1.0 2.0 0.00 0.00 0.00 48 1011.2
20260505000547 81 222 0.0 2.0 0.00 0.00 0.00 48 1011.2
20260505000059 80 342 1.0 3.0 0.00 0.00 0.00 49 1011.1
20260504235547 80 220 2.0 3.0 0.00 0.00 0.00 45 1011.2
20260504235047 81 246 1.0 4.0 0.00 0.00 0.00 47 1011.2
20260504234554 81 213 2.0 4.0 0.00 0.00 0.00 46 1011.2
20260504234048 81 242 2.0 4.0 0.00 0.00 0.00 45 1011.3
20260504233546 81 159 2.0 4.0 0.00 0.00 0.00 45 1011.2
20260504233101 81 230 1.0 5.0 0.00 0.00 0.00 45 1011.3
20260504232549 81 258 1.0 5.0 0.00 0.00 0.00 45 1011.4
20260504232046 81 45 1.0 4.0 0.00 0.00 0.00 44 1011.4
20260504231554 81 270 1.0 5.0 0.00 0.00 0.00 46 1011.5
20260504231047 81 244 2.0 5.0 0.00 0.00 0.00 44 1011.4
20260504230551 81 213 3.0 5.0 0.00 0.00 0.00 43 1011.5
20260504230100 81 236 1.0 4.0 0.00 0.00 0.00 41 1011.6
20260504225549 81 277 0.0 4.0 0.00 0.00 0.00 41 1011.7
20260504225047 81 233 3.0 4.0 0.00 0.00 0.00 43 1011.9
20260504224555 81 184 0.0 3.0 0.00 0.00 0.00 43 1011.8
20260504224046 81 233 1.0 4.0 0.00 0.00 0.00 44 1011.8
20260504223548 81 41 0.0 4.0 0.00 0.00 0.00 47 1011.8
20260504223100 80 243 2.0 4.0 0.00 0.00 0.00 45 1011.8
20260504222548 80 44 1.0 5.0 0.00 0.00 0.00 47 1011.9
20260504222046 81 51 1.0 5.0 0.00 0.00 0.00 49 1011.9
20260504221558 81 236 2.0 5.0 0.00 0.00 0.00 45 1012.0
20260504221048 81 129 0.0 4.0 0.00 0.00 0.00 44 1011.9
20260504220548 81 243 1.0 4.0 0.00 0.00 0.00 44 1012.0
20260504220052 81 257 1.0 3.0 0.00 0.00 0.00 45 1012.2
20260504215547 81 31 1.0 5.0 0.00 0.00 0.00 46 1012.1
20260504215046 80 0 1.0 5.0 0.00 0.00 0.00 47 1012.1
20260504214607 80 248 2.0 5.0 0.00 0.00 0.00 48 1012.2
20260504214047 81 60 1.0 5.0 0.00 0.00 0.00 47 1012.3
20260504213547 81 234 2.0 4.0 0.00 0.00 0.00 47 1012.3
20260504213121 81 209 2.0 6.0 0.00 0.00 0.00 51 1012.3
20260504212547 80 110 0.0 6.0 0.00 0.00 0.00 47 1012.3
20260504212046 80 229 2.0 5.0 0.00 0.00 0.00 47 1012.4
20260504211554 80 226 3.0 5.0 0.00 0.00 0.00 44 1012.4
20260504211048 80 197 1.0 5.0 0.00 0.00 0.00 44 1012.3
20260504210548 80 214 1.0 4.0 0.00 0.00 0.00 45 1012.4
20260504210058 80 310 1.0 4.0 0.00 0.00 0.00 44 1012.4
20260504205546 80 56 1.0 5.0 0.00 0.00 0.00 43 1012.4
20260504205047 80 251 1.0 5.0 0.00 0.00 0.00 47 1012.5
20260504204553 80 43 3.0 5.0 0.00 0.00 0.00 43 1012.4
20260504204047 80 217 2.0 5.0 0.00 0.00 0.00 44 1012.5
20260504203546 80 341 1.0 4.0 0.00 0.00 0.00 43 1012.5
20260504203104 80 214 1.0 5.0 0.00 0.00 0.00 44 1012.5
20260504202547 79 98 1.0 5.0 0.00 0.00 0.00 43 1012.5
20260504202047 80 262 1.0 4.0 0.00 0.00 0.00 42 1012.5
20260504201618 79 233 2.0 4.0 0.00 0.00 0.00 44 1012.5
20260504201051 79 222 2.0 4.0 0.00 0.00 0.00 43 1012.7
20260504200547 78 68 1.0 4.0 0.00 0.00 0.00 47 1012.8
20260504200057 78 40 1.0 5.0 0.00 0.00 0.00 46 1012.8
20260504195545 78 69 3.0 5.0 0.00 0.00 0.00 44 1012.7
20260504195048 79 210 1.0 3.0 0.00 0.00 0.00 47 1012.8
20260504194602 78 142 2.0 4.0 0.00 0.00 0.00 44 1012.8
20260504194048 78 259 2.0 4.0 0.00 0.00 0.00 44 1013.0
20260504193547 79 238 2.0 4.0 0.00 0.00 0.00 44 1012.9
20260504193102 79 183 1.0 7.0 0.00 0.00 0.00 46 1012.9
20260504192547 78 0 1.0 7.0 0.00 0.00 0.00 47 1012.8
20260504192051 77 237 2.0 4.0 0.00 0.00 0.00 49 1012.9
20260504191604 76 125 2.0 4.0 0.00 0.00 0.00 47 1013.0
20260504191048 77 265 1.0 4.0 0.00 0.00 0.00 45 1013.1
20260504190548 76 248 2.0 5.0 0.00 0.00 0.00 45 1013.1
20260504190112 77 226 2.0 5.0 0.00 0.00 0.00 46 1013.1
20260504185549 77 244 1.0 4.0 0.00 0.00 0.00 49 1013.2
20260504185045 77 248 1.0 2.0 0.00 0.00 0.00 48 1013.1
20260504184613 77 210 0.0 4.0 0.00 0.00 0.00 49 1013.2
20260504184046 76 256 2.0 4.0 0.00 0.00 0.00 48 1013.1
20260504183547 77 76 0.0 2.0 0.00 0.00 0.00 52 1013.3
20260504183056 76 159 1.0 3.0 0.00 0.00 0.00 56 1013.3
20260504182546 76 34 1.0 3.0 0.00 0.00 0.00 51 1013.4
20260504182047 75 238 0.0 4.0 0.00 0.00 0.00 53 1013.4
20260504181558 74 183 1.0 5.0 0.00 0.00 0.00 54 1013.5
20260504181047 74 250 2.0 5.0 0.00 0.00 0.00 53 1013.4
20260504180547 75 258 1.0 5.0 0.00 0.00 0.00 53 1013.4
20260504180059 74 283 1.0 4.0 0.00 0.00 0.00 56 1013.3
20260504175546 74 205 1.0 6.0 0.00 0.00 0.00 56 1013.2
20260504175047 73 236 1.0 6.0 0.00 0.00 0.00 55 1013.2
20260504174554 73 225 2.0 6.0 0.00 0.00 0.00 55 1013.2
20260504174047 72 11 0.0 4.0 0.00 0.00 0.00 56 1013.2
20260504173549 72 229 1.0 4.0 0.00 0.00 0.00 55 1013.3
20260504173057 71 252 2.0 4.0 0.00 0.00 0.00 56 1013.1
20260504172547 71 215 0.0 3.0 0.00 0.00 0.00 60 1013.2
20260504172048 70 235 0.0 3.0 0.00 0.00 0.00 60 1013.2
20260504171557 70 236 1.0 3.0 0.00 0.00 0.00 61 1013.2
20260504171047 70 236 1.0 3.0 0.00 0.00 0.00 60 1013.2
20260504170547 69 0 0.0 3.0 0.00 0.00 0.00 59 1013.2
20260504151047 58 182 1.0 3.0 0.00 0.00 0.00 81 1012.7
20260504150548 58 156 1.0 3.0 0.00 0.00 0.00 83 1012.7
20260504141047 52 0 0.0 0.0 0.00 0.00 0.00 97 1012.2
20260504140548 52 0 0.0 0.0 0.00 0.00 0.00 97 1012.2
20260504140108 51 0 0.0 0.0 0.00 0.00 0.00 97 1012.1
20260504130547 49 0 0.0 0.0 0.00 0.00 0.00 96 1011.7